SWA561 EGPH-EICK

Flight info

Callsign SWA561
Flight time 1h 5m
Altitude 32000
Route GOSAM1D GOSAM DCT TRN DCT NELBO DCT NIMAT DCT DUB DCT TISMO TISMO1R
Aircraft B738/M-SDE2E3FGHIRWXY/LB1

Departure

Time 2026-04-22 20:00
Airport Edinburgh Airport (EGPH)

Arrival

Time 2026-04-22 21:06
Airport Cork International Airport (EICK)
Time Latitude Longitude Altitude Speed Heading
2026-04-22 19:37 55.94881 -3.36548 107 ft 0 kts 149°
2026-04-22 19:50 55.94889 -3.36557 106 ft 2 kts 149°
2026-04-22 19:51 55.94903 -3.36572 107 ft 2 kts 149°
2026-04-22 19:51 55.94918 -3.36587 108 ft 2 kts 149°
2026-04-22 19:51 55.94931 -3.36602 108 ft 2 kts 149°
2026-04-22 19:51 55.94942 -3.36613 107 ft 0 kts 149°
2026-04-22 19:52 55.94938 -3.36620 107 ft 1 kts 220°
2026-04-22 19:52 55.94938 -3.36621 107 ft 0 kts 229°
2026-04-22 19:52 55.94923 -3.36654 108 ft 15 kts 232°
2026-04-22 19:53 55.94912 -3.36817 109 ft 13 kts 304°
2026-04-22 19:53 55.94898 -3.36969 108 ft 13 kts 247°
2026-04-22 19:53 55.94853 -3.37106 108 ft 13 kts 237°
2026-04-22 19:53 55.94808 -3.37239 108 ft 12 kts 238°
2026-04-22 19:54 55.94764 -3.37369 112 ft 12 kts 239°
2026-04-22 19:54 55.94722 -3.37497 111 ft 12 kts 240°
2026-04-22 19:54 55.94681 -3.37621 113 ft 11 kts 238°
2026-04-22 19:54 55.94639 -3.37739 113 ft 11 kts 238°
2026-04-22 19:55 55.94597 -3.37862 113 ft 12 kts 239°
2026-04-22 19:55 55.94553 -3.37991 114 ft 12 kts 239°
2026-04-22 19:55 55.94510 -3.38120 113 ft 12 kts 239°
2026-04-22 19:55 55.94466 -3.38250 114 ft 12 kts 239°
2026-04-22 19:56 55.94444 -3.38315 115 ft 0 kts 239°
2026-04-22 19:57 55.94425 -3.38371 116 ft 18 kts 239°
2026-04-22 19:57 55.94359 -3.38567 117 ft 18 kts 237°
2026-04-22 19:57 55.94306 -3.38718 119 ft 13 kts 238°
2026-04-22 19:58 55.94290 -3.38856 123 ft 9 kts 299°
2026-04-22 19:58 55.94308 -3.38886 121 ft 0 kts 321°
2026-04-22 19:58 55.94309 -3.38887 121 ft 3 kts 321°
2026-04-22 19:58 55.94378 -3.38964 119 ft 14 kts 338°
2026-04-22 19:59 55.94420 -3.38942 118 ft 0 kts 50°
2026-04-22 20:00 55.96624 -3.32731 1742 ft 178 kts 52°
2026-04-22 20:00 55.97475 -3.31055 2469 ft 185 kts 50°
2026-04-22 20:01 55.98439 -3.29469 3198 ft 190 kts 39°
2026-04-22 20:01 55.99636 -3.28273 3796 ft 208 kts 24°
2026-04-22 20:01 56.00976 -3.27924 3981 ft 234 kts 358°
2026-04-22 20:01 56.02565 -3.28946 4302 ft 255 kts 323°
2026-04-22 20:02 56.03655 -3.31563 4649 ft 274 kts 284°
2026-04-22 20:02 56.03677 -3.34924 5386 ft 272 kts 250°
2026-04-22 20:02 56.02986 -3.38056 5937 ft 272 kts 245°
2026-04-22 20:02 56.02323 -3.41262 6694 ft 276 kts 248°
2026-04-22 20:03 56.01735 -3.44532 7534 ft 277 kts 250°
2026-04-22 20:03 56.01203 -3.47867 8282 ft 280 kts 252°
2026-04-22 20:03 56.00706 -3.51254 9044 ft 283 kts 252°
2026-04-22 20:03 56.00214 -3.54686 9807 ft 286 kts 252°
2026-04-22 20:04 55.99721 -3.58143 10567 ft 289 kts 252°
2026-04-22 20:04 55.99222 -3.61641 11269 ft 292 kts 252°
2026-04-22 20:04 55.98717 -3.65169 11975 ft 295 kts 253°
2026-04-22 20:04 55.98205 -3.68738 12686 ft 298 kts 252°
2026-04-22 20:05 55.97686 -3.72345 13421 ft 301 kts 253°
2026-04-22 20:05 55.97162 -3.75990 14154 ft 305 kts 253°
2026-04-22 20:05 55.96635 -3.79636 14829 ft 308 kts 253°
2026-04-22 20:05 55.96098 -3.83357 15568 ft 310 kts 252°
2026-04-22 20:06 55.95558 -3.87087 16305 ft 311 kts 252°
2026-04-22 20:06 55.95012 -3.90843 17036 ft 314 kts 252°
2026-04-22 20:06 55.94453 -3.94668 17475 ft 327 kts 252°
2026-04-22 20:06 55.93755 -3.98665 17619 ft 346 kts 244°
2026-04-22 20:07 55.92565 -4.02427 18092 ft 352 kts 232°
2026-04-22 20:07 55.90941 -4.05703 18785 ft 352 kts 221°
2026-04-22 20:07 55.89000 -4.08378 19422 ft 353 kts 213°
2026-04-22 20:07 55.86933 -4.10777 20019 ft 356 kts 212°
2026-04-22 20:08 55.84837 -4.13175 20615 ft 360 kts 212°
2026-04-22 20:08 55.82698 -4.15648 20773 ft 376 kts 213°
2026-04-22 20:08 55.80491 -4.18225 20906 ft 390 kts 213°
2026-04-22 20:08 55.78191 -4.20931 21106 ft 402 kts 213°
2026-04-22 20:09 55.75862 -4.23773 21452 ft 409 kts 214°
2026-04-22 20:09 55.73520 -4.26687 21991 ft 411 kts 215°
2026-04-22 20:09 55.71179 -4.29611 22502 ft 413 kts 215°
2026-04-22 20:09 55.68804 -4.32571 22932 ft 417 kts 215°
2026-04-22 20:10 55.66422 -4.35529 23402 ft 419 kts 215°
2026-04-22 20:10 55.64021 -4.38497 23886 ft 422 kts 215°
2026-04-22 20:10 55.61639 -4.41433 24265 ft 425 kts 215°
2026-04-22 20:10 55.59201 -4.44430 24619 ft 428 kts 215°
2026-04-22 20:11 55.56743 -4.47447 24981 ft 431 kts 215°
2026-04-22 20:11 55.54269 -4.50477 25303 ft 434 kts 215°
2026-04-22 20:11 55.51769 -4.53535 25563 ft 439 kts 215°
2026-04-22 20:11 55.49253 -4.56608 25883 ft 441 kts 215°
2026-04-22 20:12 55.46718 -4.59699 26259 ft 442 kts 215°
2026-04-22 20:12 55.44191 -4.62775 26776 ft 439 kts 215°
2026-04-22 20:12 55.42529 -4.64796 27171 ft 436 kts 215°
2026-04-22 20:12 55.39229 -4.68803 27987 ft 430 kts 215°
2026-04-22 20:13 55.36769 -4.71786 28523 ft 428 kts 216°
2026-04-22 20:13 55.34323 -4.74746 29033 ft 426 kts 216°
2026-04-22 20:13 55.31852 -4.77614 29572 ft 424 kts 211°
2026-04-22 20:13 55.29240 -4.79880 30100 ft 423 kts 203°
2026-04-22 20:14 55.26481 -4.81644 30613 ft 421 kts 202°
2026-04-22 20:14 55.23725 -4.83367 30987 ft 421 kts 202°
2026-04-22 20:14 55.20967 -4.85092 31299 ft 421 kts 202°
2026-04-22 20:14 55.18200 -4.86833 31624 ft 422 kts 202°
2026-04-22 20:15 55.15448 -4.88574 32006 ft 420 kts 202°
2026-04-22 20:15 55.12701 -4.90319 32374 ft 420 kts 202°
2026-04-22 20:15 55.09938 -4.92078 32395 ft 425 kts 202°
2026-04-22 20:16 55.04372 -4.95621 32402 ft 423 kts 202°
2026-04-22 20:16 54.98921 -4.99078 32406 ft 417 kts 202°
2026-04-22 20:17 54.93453 -5.02539 32405 ft 419 kts 202°
2026-04-22 20:17 54.87970 -5.05999 32407 ft 419 kts 202°
2026-04-22 20:18 54.82478 -5.09453 32403 ft 420 kts 202°
2026-04-22 20:18 54.76979 -5.12902 32400 ft 420 kts 201°
2026-04-22 20:19 54.71479 -5.16341 32401 ft 420 kts 201°
2026-04-22 20:19 54.66089 -5.19703 32402 ft 419 kts 201°
2026-04-22 20:20 54.60605 -5.23113 32400 ft 419 kts 201°
2026-04-22 20:20 54.55121 -5.26515 32399 ft 418 kts 201°
2026-04-22 20:21 54.49645 -5.29903 32394 ft 418 kts 202°
2026-04-22 20:21 54.44386 -5.34100 32395 ft 416 kts 207°
2026-04-22 20:22 54.39209 -5.38534 32390 ft 415 kts 207°
2026-04-22 20:22 54.34034 -5.42928 32391 ft 415 kts 207°
2026-04-22 20:23 54.28878 -5.47268 32386 ft 415 kts 207°
2026-04-22 20:23 54.23680 -5.51622 32382 ft 416 kts 207°
2026-04-22 20:24 54.18468 -5.55975 32381 ft 416 kts 207°
2026-04-22 20:24 54.13257 -5.60317 32379 ft 417 kts 206°
2026-04-22 20:25 54.08035 -5.64656 32372 ft 417 kts 206°
2026-04-22 20:25 54.02841 -5.68961 32366 ft 418 kts 206°
2026-04-22 20:26 53.97615 -5.73283 32362 ft 418 kts 207°
2026-04-22 20:26 53.92749 -5.78656 32364 ft 417 kts 216°
2026-04-22 20:27 53.88063 -5.84479 32352 ft 417 kts 216°
2026-04-22 20:27 53.83386 -5.90240 32332 ft 409 kts 215°
2026-04-22 20:28 53.78873 -5.95749 32337 ft 399 kts 215°
2026-04-22 20:28 53.74360 -6.01231 32349 ft 399 kts 215°
2026-04-22 20:29 53.69843 -6.06703 32341 ft 400 kts 215°
2026-04-22 20:29 53.65313 -6.12177 32332 ft 401 kts 215°
2026-04-22 20:30 53.60780 -6.17640 32324 ft 401 kts 215°
2026-04-22 20:30 53.56237 -6.23103 32324 ft 401 kts 215°
2026-04-22 20:31 53.51689 -6.28557 32321 ft 401 kts 215°
2026-04-22 20:31 53.47252 -6.33995 31893 ft 391 kts 217°
2026-04-22 20:31 53.45112 -6.36776 31571 ft 385 kts 217°
2026-04-22 20:32 53.43018 -6.39526 31240 ft 380 kts 217°
2026-04-22 20:32 53.40947 -6.42247 30913 ft 376 kts 217°
2026-04-22 20:32 53.38889 -6.44939 30577 ft 376 kts 217°
2026-04-22 20:32 53.36819 -6.47634 30248 ft 377 kts 217°
2026-04-22 20:33 53.34744 -6.50323 29887 ft 379 kts 217°
2026-04-22 20:33 53.32652 -6.53027 29528 ft 380 kts 217°
2026-04-22 20:33 53.30550 -6.55737 29170 ft 382 kts 217°
2026-04-22 20:33 53.28439 -6.58454 28822 ft 384 kts 217°
2026-04-22 20:34 53.26318 -6.61180 28373 ft 382 kts 217°
2026-04-22 20:34 53.24922 -6.62971 28095 ft 385 kts 217°
2026-04-22 20:34 53.22779 -6.65718 27692 ft 390 kts 217°
2026-04-22 20:34 53.19904 -6.69399 27155 ft 394 kts 217°
2026-04-22 20:35 53.17726 -6.72183 26735 ft 394 kts 217°
2026-04-22 20:35 53.16255 -6.74060 26458 ft 394 kts 217°
2026-04-22 20:35 53.14080 -6.76834 26064 ft 395 kts 217°
2026-04-22 20:35 53.11188 -6.80517 25540 ft 395 kts 217°
2026-04-22 20:36 53.09712 -6.82394 25279 ft 395 kts 217°
2026-04-22 20:36 53.07536 -6.85158 24900 ft 394 kts 217°
2026-04-22 20:36 53.05356 -6.87924 24514 ft 393 kts 217°
2026-04-22 20:36 53.03193 -6.90665 24142 ft 391 kts 217°
2026-04-22 20:37 53.01034 -6.93397 23757 ft 389 kts 217°
2026-04-22 20:37 52.98915 -6.96075 23320 ft 386 kts 217°
2026-04-22 20:37 52.96784 -6.98766 22889 ft 384 kts 217°
2026-04-22 20:37 52.94671 -7.01429 22390 ft 376 kts 217°
2026-04-22 20:38 52.92611 -7.04023 21877 ft 366 kts 217°
2026-04-22 20:38 52.90611 -7.06538 21355 ft 356 kts 217°
2026-04-22 20:38 52.88659 -7.08991 20846 ft 347 kts 217°
2026-04-22 20:38 52.86753 -7.11383 20336 ft 340 kts 217°
2026-04-22 20:39 52.84885 -7.13723 19857 ft 333 kts 216°
2026-04-22 20:39 52.83055 -7.16014 19372 ft 328 kts 216°
2026-04-22 20:39 52.81251 -7.18270 18899 ft 323 kts 216°
2026-04-22 20:39 52.79488 -7.20472 18422 ft 320 kts 216°
2026-04-22 20:40 52.77714 -7.22686 17884 ft 317 kts 216°
2026-04-22 20:40 52.75956 -7.24877 17359 ft 314 kts 216°
2026-04-22 20:40 52.74214 -7.27045 16846 ft 312 kts 216°
2026-04-22 20:40 52.72485 -7.29197 16332 ft 310 kts 216°
2026-04-22 20:41 52.70767 -7.31332 15837 ft 308 kts 216°
2026-04-22 20:41 52.69058 -7.33453 15338 ft 306 kts 216°
2026-04-22 20:41 52.67360 -7.35558 14856 ft 305 kts 216°
2026-04-22 20:41 52.65688 -7.37630 14473 ft 304 kts 216°
2026-04-22 20:42 52.63988 -7.39734 14126 ft 306 kts 216°
2026-04-22 20:42 52.62285 -7.41839 13733 ft 307 kts 216°
2026-04-22 20:42 52.60578 -7.43948 13338 ft 306 kts 216°
2026-04-22 20:42 52.58876 -7.46050 12945 ft 305 kts 216°
2026-04-22 20:43 52.57181 -7.48139 12564 ft 304 kts 216°
2026-04-22 20:43 52.55495 -7.50216 12187 ft 302 kts 215°
2026-04-22 20:43 52.53815 -7.52284 11800 ft 301 kts 215°
2026-04-22 20:43 52.52139 -7.54344 11434 ft 300 kts 215°
2026-04-22 20:44 52.50492 -7.56368 11048 ft 291 kts 215°
2026-04-22 20:44 52.48891 -7.58335 10678 ft 284 kts 214°
2026-04-22 20:44 52.47322 -7.60258 10313 ft 280 kts 214°
2026-04-22 20:44 52.45768 -7.62162 9938 ft 278 kts 214°
2026-04-22 20:45 52.44224 -7.64051 9577 ft 276 kts 213°
2026-04-22 20:45 52.42679 -7.65938 9327 ft 278 kts 213°
2026-04-22 20:45 52.41124 -7.67837 9065 ft 280 kts 213°
2026-04-22 20:45 52.39576 -7.69724 8863 ft 281 kts 213°
2026-04-22 20:46 52.36438 -7.73548 8507 ft 281 kts 212°
2026-04-22 20:46 52.34869 -7.75459 8343 ft 280 kts 212°
2026-04-22 20:46 52.33312 -7.77352 8265 ft 279 kts 212°
2026-04-22 20:47 52.31760 -7.79239 8251 ft 276 kts 212°
2026-04-22 20:47 52.30224 -7.81105 8142 ft 274 kts 212°
2026-04-22 20:47 52.28713 -7.82939 7982 ft 267 kts 212°
2026-04-22 20:47 52.27244 -7.84721 7826 ft 260 kts 212°
2026-04-22 20:48 52.25827 -7.86438 7655 ft 253 kts 212°
2026-04-22 20:48 52.24431 -7.88127 7503 ft 248 kts 211°
2026-04-22 20:48 52.23048 -7.89797 7347 ft 247 kts 211°
2026-04-22 20:48 52.21661 -7.91468 7249 ft 249 kts 210°
2026-04-22 20:49 52.20251 -7.93168 7086 ft 253 kts 210°
2026-04-22 20:49 52.18830 -7.94882 6944 ft 255 kts 210°
2026-04-22 20:49 52.17402 -7.96602 6821 ft 255 kts 210°
2026-04-22 20:49 52.15974 -7.98321 6720 ft 254 kts 210°
2026-04-22 20:50 52.14556 -8.00038 6620 ft 255 kts 213°
2026-04-22 20:50 52.13437 -8.02337 6491 ft 267 kts 238°
2026-04-22 20:50 52.12886 -8.05259 6411 ft 272 kts 250°
2026-04-22 20:50 52.12478 -8.08307 6294 ft 277 kts 251°
2026-04-22 20:51 52.12089 -8.11329 6244 ft 275 kts 251°
2026-04-22 20:51 52.11695 -8.14370 6231 ft 273 kts 251°
2026-04-22 20:51 52.11297 -8.17391 6225 ft 273 kts 251°
2026-04-22 20:51 52.10892 -8.20415 6236 ft 275 kts 250°
2026-04-22 20:52 52.10481 -8.23451 6204 ft 273 kts 251°
2026-04-22 20:52 52.10067 -8.26491 5793 ft 277 kts 250°
2026-04-22 20:52 52.09645 -8.29574 5427 ft 280 kts 250°
2026-04-22 20:52 52.09217 -8.32690 5066 ft 283 kts 251°
2026-04-22 20:53 52.08782 -8.35844 4685 ft 286 kts 251°
2026-04-22 20:53 52.08345 -8.39011 4294 ft 289 kts 251°
2026-04-22 20:53 52.07907 -8.42171 3918 ft 291 kts 251°
2026-04-22 20:53 52.07666 -8.45460 3515 ft 301 kts 271°
2026-04-22 20:54 52.08337 -8.48709 3135 ft 309 kts 301°
2026-04-22 20:54 52.09846 -8.51106 3021 ft 300 kts 332°
2026-04-22 20:54 52.11744 -8.52122 2995 ft 278 kts
2026-04-22 20:54 52.13542 -8.51742 3028 ft 248 kts 28°
2026-04-22 20:55 52.14962 -8.50392 3012 ft 228 kts 51°
2026-04-22 20:55 52.15948 -8.48471 3007 ft 216 kts 70°
2026-04-22 20:55 52.16468 -8.46246 3006 ft 205 kts 87°
2026-04-22 20:55 52.16525 -8.43978 3008 ft 197 kts 103°
2026-04-22 20:56 52.16164 -8.41896 3012 ft 192 kts 118°
2026-04-22 20:56 52.15469 -8.40060 3019 ft 188 kts 129°
2026-04-22 20:56 52.14596 -8.38565 2999 ft 176 kts 140°
2026-04-22 20:56 52.13533 -8.37741 2973 ft 171 kts 174°
2026-04-22 20:57 52.12462 -8.38608 3001 ft 191 kts 224°
2026-04-22 20:57 52.11814 -8.40615 3027 ft 204 kts 233°
2026-04-22 20:57 52.11153 -8.42642 3032 ft 201 kts 230°
2026-04-22 20:57 52.10469 -8.44577 3035 ft 194 kts 229°
2026-04-22 20:58 52.09762 -8.46465 3022 ft 197 kts 227°
2026-04-22 20:58 52.09017 -8.48364 3019 ft 201 kts 227°
2026-04-22 20:58 52.08256 -8.50246 3013 ft 197 kts 226°
2026-04-22 20:58 52.07502 -8.52070 2998 ft 192 kts 225°
2026-04-22 20:59 52.06767 -8.53816 2978 ft 182 kts 224°
2026-04-22 20:59 52.06067 -8.55466 2972 ft 174 kts 223°
2026-04-22 20:59 52.05376 -8.57073 3007 ft 173 kts 224°
2026-04-22 20:59 52.04680 -8.58679 3001 ft 173 kts 221°
2026-04-22 21:00 52.03805 -8.59677 2996 ft 144 kts 175°
2026-04-22 21:00 52.02847 -8.59425 3007 ft 139 kts 165°
2026-04-22 21:00 52.01933 -8.59205 2991 ft 130 kts 161°
2026-04-22 21:00 52.01052 -8.58888 3008 ft 131 kts 161°
2026-04-22 21:01 52.00180 -8.58515 3007 ft 129 kts 158°
2026-04-22 21:01 51.99336 -8.58080 3003 ft 127 kts 156°
2026-04-22 21:01 51.98502 -8.57614 3001 ft 127 kts 156°
2026-04-22 21:01 51.97661 -8.57127 3004 ft 129 kts 156°
2026-04-22 21:02 51.96802 -8.56622 2979 ft 133 kts 155°
2026-04-22 21:02 51.95923 -8.56102 2817 ft 134 kts 156°
2026-04-22 21:02 51.95053 -8.55587 2630 ft 131 kts 156°
2026-04-22 21:02 51.94230 -8.55102 2478 ft 122 kts 155°
2026-04-22 21:03 51.93439 -8.54632 2312 ft 121 kts 155°
2026-04-22 21:03 51.92642 -8.54159 2137 ft 122 kts 155°
2026-04-22 21:03 51.91857 -8.53687 1965 ft 122 kts 154°
2026-04-22 21:03 51.91074 -8.53228 1833 ft 116 kts 154°
2026-04-22 21:04 51.90319 -8.52782 1674 ft 116 kts 154°
2026-04-22 21:04 51.89532 -8.52314 1491 ft 122 kts 154°
2026-04-22 21:04 51.88717 -8.51832 1310 ft 128 kts 154°
2026-04-22 21:04 51.87867 -8.51327 1128 ft 131 kts 154°
2026-04-22 21:05 51.87001 -8.50816 930 ft 134 kts 156°
2026-04-22 21:05 51.86113 -8.50287 749 ft 138 kts 156°
2026-04-22 21:05 51.85198 -8.49746 575 ft 140 kts 154°
2026-04-22 21:05 51.84341 -8.49218 487 ft 117 kts 160°
2026-04-22 21:06 51.83978 -8.49017 478 ft 26 kts 160°
2026-04-22 21:06 51.83797 -8.48914 471 ft 29 kts 162°
2026-04-22 21:06 51.83611 -8.48814 470 ft 27 kts 161°
2026-04-22 21:06 51.83438 -8.48715 472 ft 26 kts 160°
2026-04-22 21:07 51.83276 -8.48631 470 ft 20 kts 164°
2026-04-22 21:07 51.83278 -8.48613 470 ft 14 kts 340°
2026-04-22 21:07 51.83545 -8.48765 471 ft 54 kts 340°
2026-04-22 21:07 51.83881 -8.48965 473 ft 50 kts 340°
2026-04-22 21:08 51.84186 -8.49145 489 ft 44 kts 340°
2026-04-22 21:08 51.84472 -8.49313 481 ft 44 kts 340°
2026-04-22 21:08 51.84714 -8.49455 484 ft 22 kts 344°
2026-04-22 21:08 51.84791 -8.49338 478 ft 15 kts 68°
2026-04-22 21:09 51.84858 -8.49240 485 ft 13 kts 358°
2026-04-22 21:09 51.84932 -8.49263 486 ft 7 kts 352°
2026-04-22 21:09 51.84947 -8.49240 481 ft 6 kts 52°
2026-04-22 21:09 51.84959 -8.49205 488 ft 0 kts 63°